Weather History for Reno, NV

Change the Weather History Date:

Saturday, January 26, 2013

  Actual Average Record
Temperature  
Mean Temperature 44 °F 36 °F  
Max Temperature 57 °F 47 °F 67 °F (1987)
Min Temperature 31 °F 26 °F -15 °F (1949)
Degree Days  
Heating Degree Days 21 29  
Month to date heating degree days 934 772  
Since 1 July heating degree days 2610 2796  
Cooling Degree Days 0 0  
Month to date cooling degree days 0 0  
Year to date cooling degree days 0 0  
Moisture  
Dew Point 29 °F    
Average Humidity 68    
Maximum Humidity 100    
Minimum Humidity 35    
Precipitation  
Precipitation 0.00 in 0.03 in 0.67 in (1956)
Month to date precipitation 0.09 0.89  
Year to date precipitation 0.09 0.89  
Snow  
Snow 0.00 in 0.20 in 5.50 in (1956)
Month to date snowfall 0.6 5.1  
Since 1 July snowfall 8.6 13.5  
Snow Depth 0.00 in    
Sea Level Pressure  
Sea Level Pressure 29.90 in    
Wind  
Wind Speed 4 mph (SSE)    
Max Wind Speed 23 mph    
Max Gust Speed 28 mph    
Visibility 6 miles    
Events Fog    
T = Trace of Precipitation, MM = Missing Value Source: NWS Daily Summary

Daily Weather History Graph

Daily Weather History Graph

Search for Another Location

Airport:

Trip Planner

Search our weather history database for the weather conditions in past years. The results will help you decide how hot, cold, wet, or windy it might be!

Date:

Astronomy

Jan. 26, 2013 Rise Set
Actual Time 7:11 AM PST 5:12 PM PST
Civil Twilight 6:42 AM PST 5:41 PM PST
Nautical Twilight 6:10 AM PST 6:13 PM PST
Astronomical Twilight 5:38 AM PST 6:45 PM PST
Moon 5:12 PM PST (1/26) 6:32 AM PST (1/26)
Length of Visible Light 10h 58m
Length of Day
10h 01m
Full, 100% of the Moon is Illuminated
Jan 26
Full
Jan 26
Full
Feb 3
Last Quarter
Feb 9
New
Feb 17
First Quarter

Hourly Weather History & Observations

Time (PST) Temp. Windchill Dew Point Humidity Pressure Visibility Wind Dir Wind Speed Gust Speed Precip Events Conditions
12:55 AM 39.9 °F - 37.0 °F 89% 30.00 in 10.0 mi Calm Calm - N/A   Scattered Clouds
1:55 AM 36.0 °F - 34.0 °F 93% 29.99 in 7.0 mi Calm Calm - N/A   Scattered Clouds
2:55 AM 35.1 °F - 34.0 °F 96% 29.98 in 6.0 mi Calm Calm - N/A   Scattered Clouds
3:55 AM 33.1 °F - 30.9 °F 92% 29.97 in 4.0 mi Calm Calm - N/A   Scattered Clouds
4:55 AM 33.1 °F - 30.9 °F 92% 29.96 in 4.0 mi Calm Calm - N/A   Scattered Clouds
5:15 AM 32.0 °F - 30.2 °F 93% 29.98 in 3.0 mi Calm Calm - N/A   Scattered Clouds
5:29 AM 30.2 °F - 30.2 °F 100% 29.97 in 2.0 mi Calm Calm - N/A   Scattered Clouds
5:35 AM 30.2 °F - 30.2 °F 100% 29.98 in 1.0 mi Calm Calm - N/A   Scattered Clouds
5:43 AM 32.0 °F - 30.2 °F 93% 29.98 in 0.5 mi Calm Calm - N/A Fog Fog
5:55 AM 32.0 °F - 30.9 °F 96% 29.96 in 0.5 mi Calm Calm - N/A Fog Fog
6:02 AM 32.0 °F 28.7 °F 30.2 °F 93% 29.96 in 0.2 mi ENE 3.5 mph - N/A Fog Fog
6:55 AM 33.1 °F 30.0 °F 32.0 °F 96% 29.95 in 0.1 mi Variable 3.5 mph - N/A Fog Fog
7:55 AM 33.1 °F 28.7 °F 32.0 °F 96% 29.95 in 0.1 mi East 4.6 mph - N/A Fog Fog
8:55 AM 34.0 °F 31.0 °F 34.0 °F 100% 29.93 in 0.1 mi NNW 3.5 mph - N/A Fog Fog
9:55 AM 35.1 °F - 35.1 °F 100% 29.93 in 0.1 mi Calm Calm - N/A Fog Fog
10:51 AM 39.2 °F - 35.6 °F 87% 29.92 in 0.5 mi Calm Calm - N/A   Mostly Cloudy
10:55 AM 39.0 °F - 37.0 °F 93% 29.90 in 5.0 mi Calm Calm - N/A   Mostly Cloudy
11:55 AM 48.9 °F - 37.9 °F 66% 29.83 in 10.0 mi Calm Calm - N/A   Scattered Clouds
12:55 PM 54.0 °F - 28.9 °F 38% 29.79 in 10.0 mi Calm Calm - N/A   Scattered Clouds
1:55 PM 55.0 °F - 28.9 °F 37% 29.78 in 10.0 mi WSW 9.2 mph - N/A   Scattered Clouds
2:55 PM 52.0 °F - 26.1 °F 37% 29.78 in 10.0 mi SSW 16.1 mph - N/A   Scattered Clouds
3:55 PM 52.0 °F - 25.0 °F 35% 29.78 in 10.0 mi South 21.9 mph 27.6 mph N/A   Scattered Clouds
4:55 PM 48.9 °F - 24.1 °F 38% 29.79 in 10.0 mi WNW 12.7 mph - N/A   Scattered Clouds
5:55 PM 46.0 °F 44.8 °F 23.0 °F 40% 29.82 in 10.0 mi Variable 3.5 mph - N/A   Scattered Clouds
6:55 PM 43.0 °F - 27.0 °F 53% 29.84 in 10.0 mi Calm Calm - N/A   Scattered Clouds
7:55 PM 42.1 °F 34.2 °F 24.1 °F 49% 29.85 in 10.0 mi WNW 16.1 mph 20.7 mph N/A   Scattered Clouds
8:55 PM 41.0 °F - 21.9 °F 47% 29.84 in 10.0 mi Calm Calm - N/A   Scattered Clouds
9:55 PM 37.9 °F 34.4 °F 21.9 °F 53% 29.86 in 10.0 mi East 4.6 mph - N/A   Scattered Clouds
10:55 PM 37.0 °F 33.3 °F 23.0 °F 57% 29.86 in 10.0 mi ESE 4.6 mph - N/A   Mostly Cloudy
11:55 PM 37.9 °F 33.5 °F 21.9 °F 53% 29.83 in 10.0 mi Variable 5.8 mph - N/A   Mostly Cloudy